Terminal Aerodrome Forecast
Issued by NWS Chicago, IL

Home | Current Version | Previous Version | Graphics & Text | Print | Product List | Glossary On
Versions: 1 2 3 4 5 6 7 8 9 10 11 12 13 14 15 16 17 18 19 20 21 22 23 24 25 26 27 28 29 30 31 32
000
FTUS43 KLOT 271734
TAFRFD
TAF
KRFD 271734Z 2718/2818 04011G16KT P6SM SCT250
     FM280100 VRB03KT P6SM FEW250
     FM281500 20007KT P6SM VCSH SCT050 SCT250=

USA.gov is the U.S. government's official web portal to all federal, state and local government web resources and services.